| time (UTC) | temp C | wind direction | speed KPH | gust KPH | rain 1hr cm | rain 24hr cm | rain mn cm | humidity % | barometer mb |
| 20260507115401 | 7 | 269 | 0.0 | 1.6 | 0.00 | 0.00 | 0.00 | 62 | 1012.7 |
| 20260507114857 | 7 | 286 | 0.0 | 0.0 | 0.00 | 0.00 | 0.00 | 62 | 1012.9 |
| 20260507114354 | 7 | 266 | 1.6 | 1.6 | 0.00 | 0.00 | 0.00 | 62 | 1012.6 |
| 20260507113852 | 7 | 267 | 3.2 | 4.8 | 0.00 | 0.00 | 0.00 | 62 | 1012.6 |
| 20260507113349 | 7 | 249 | 3.2 | 4.8 | 0.00 | 0.00 | 0.00 | 62 | 1012.5 |
| 20260507112846 | 7 | 243 | 8.0 | 8.0 | 0.00 | 0.00 | 0.00 | 61 | 1012.4 |
| 20260507112343 | 7 | 240 | 4.8 | 4.8 | 0.00 | 0.00 | 0.00 | 61 | 1012.2 |
| 20260507111841 | 7 | 240 | 3.2 | 3.2 | 0.00 | 0.00 | 0.00 | 61 | 1012.3 |
| 20260507111338 | 7 | 229 | 4.8 | 4.8 | 0.00 | 0.00 | 0.00 | 60 | 1012.3 |
| 20260507110833 | 7 | 235 | 6.4 | 8.0 | 0.00 | 0.00 | 0.00 | 60 | 1012.4 |
| 20260507110330 | 7 | 234 | 8.0 | 9.7 | 0.00 | 0.00 | 0.00 | 59 | 1012.3 |
| 20260507105827 | 7 | 227 | 1.6 | 3.2 | 0.00 | 0.00 | 0.00 | 59 | 1012.3 |
| 20260507105323 | 7 | 219 | 1.6 | 1.6 | 0.00 | 0.00 | 0.00 | 59 | 1012.2 |
| 20260507104820 | 7 | 223 | 4.8 | 4.8 | 0.00 | 0.00 | 0.00 | 59 | 1012.4 |
| 20260507104317 | 7 | 231 | 3.2 | 4.8 | 0.00 | 0.00 | 0.00 | 59 | 1012.5 |
| 20260507103813 | 7 | 233 | 4.8 | 8.0 | 0.00 | 0.00 | 0.00 | 58 | 1012.6 |
| 20260507103309 | 7 | 201 | 3.2 | 3.2 | 0.00 | 0.00 | 0.00 | 58 | 1012.6 |
| 20260507102806 | 7 | 230 | 3.2 | 3.2 | 0.00 | 0.00 | 0.00 | 58 | 1012.6 |
| 20260507102306 | 7 | 232 | 1.6 | 1.6 | 0.00 | 0.00 | 0.00 | 58 | 1012.4 |
| 20260507101759 | 7 | 232 | 1.6 | 1.6 | 0.00 | 0.00 | 0.00 | 57 | 1012.6 |
| 20260507101259 | 7 | 212 | 1.6 | 1.6 | 0.00 | 0.00 | 0.00 | 56 | 1012.6 |
| 20260507100756 | 7 | 228 | 1.6 | 1.6 | 0.00 | 0.00 | 0.00 | 56 | 1012.9 |
| 20260507100255 | 7 | 220 | 1.6 | 3.2 | 0.00 | 0.00 | 0.00 | 57 | 1012.8 |
| 20260507095752 | 7 | 231 | 1.6 | 1.6 | 0.00 | 0.00 | 0.00 | 57 | 1013.1 |
| 20260507095249 | 7 | 207 | 3.2 | 3.2 | 0.00 | 0.00 | 0.00 | 56 | 1013.0 |
| 20260507094746 | 7 | 204 | 1.6 | 1.6 | 0.00 | 0.00 | 0.00 | 56 | 1012.9 |
| 20260507094243 | 7 | 178 | 4.8 | 4.8 | 0.00 | 0.00 | 0.00 | 56 | 1013.1 |
| 20260507093739 | 7 | 236 | 3.2 | 4.8 | 0.00 | 0.00 | 0.00 | 56 | 1013.3 |
| 20260507093238 | 7 | 235 | 0.0 | 1.6 | 0.00 | 0.00 | 0.00 | 56 | 1013.3 |
| 20260507092735 | 7 | 227 | 4.8 | 4.8 | 0.00 | 0.00 | 0.00 | 55 | 1013.5 |
| 20260507092231 | 7 | 225 | 1.6 | 1.6 | 0.00 | 0.00 | 0.00 | 56 | 1013.6 |
| 20260507091728 | 7 | 217 | 3.2 | 3.2 | 0.00 | 0.00 | 0.00 | 55 | 1013.6 |
| 20260507091224 | 8 | 253 | 4.8 | 4.8 | 0.00 | 0.00 | 0.00 | 54 | 1014.0 |
| 20260507090720 | 8 | 231 | 4.8 | 4.8 | 0.00 | 0.00 | 0.00 | 54 | 1014.0 |
| 20260507090217 | 7 | 233 | 1.6 | 1.6 | 0.00 | 0.00 | 0.00 | 54 | 1013.9 |
| 20260507085714 | 7 | 206 | 1.6 | 1.6 | 0.00 | 0.00 | 0.00 | 54 | 1014.1 |
| 20260507085211 | 7 | 227 | 1.6 | 1.6 | 0.00 | 0.00 | 0.00 | 54 | 1013.9 |
| 20260507084708 | 7 | 234 | 1.6 | 1.6 | 0.00 | 0.00 | 0.00 | 54 | 1013.9 |
| 20260507084204 | 7 | 231 | 1.6 | 3.2 | 0.00 | 0.00 | 0.00 | 54 | 1014.0 |
| 20260507083702 | 7 | 229 | 3.2 | 3.2 | 0.00 | 0.00 | 0.00 | 55 | 1014.1 |
| 20260507083158 | 7 | 222 | 0.0 | 1.6 | 0.00 | 0.00 | 0.00 | 56 | 1014.0 |
| 20260507082654 | 7 | 231 | 1.6 | 1.6 | 0.00 | 0.00 | 0.00 | 56 | 1014.0 |
| 20260507082150 | 7 | 237 | 1.6 | 1.6 | 0.00 | 0.00 | 0.00 | 56 | 1014.4 |
| 20260507081647 | 7 | 235 | 3.2 | 4.8 | 0.00 | 0.00 | 0.00 | 55 | 1014.3 |
| 20260507081143 | 7 | 232 | 1.6 | 1.6 | 0.00 | 0.00 | 0.00 | 55 | 1014.5 |
| 20260507080640 | 7 | 238 | 3.2 | 4.8 | 0.00 | 0.00 | 0.00 | 55 | 1014.5 |
| 20260507080136 | 7 | 233 | 1.6 | 3.2 | 0.00 | 0.00 | 0.00 | 55 | 1014.5 |
| 20260507075631 | 7 | 236 | 1.6 | 1.6 | 0.00 | 0.00 | 0.00 | 55 | 1014.5 |
| 20260507075128 | 7 | 231 | 4.8 | 4.8 | 0.00 | 0.00 | 0.00 | 56 | 1014.6 |
| 20260507074625 | 7 | 228 | 4.8 | 4.8 | 0.00 | 0.00 | 0.00 | 56 | 1014.5 |
| 20260507074123 | 7 | 240 | 4.8 | 4.8 | 0.00 | 0.00 | 0.00 | 56 | 1014.6 |
| 20260507073619 | 7 | 239 | 0.0 | 0.0 | 0.00 | 0.00 | 0.00 | 56 | 1014.7 |
| 20260507073115 | 7 | 235 | 1.6 | 1.6 | 0.00 | 0.00 | 0.00 | 56 | 1014.7 |
| 20260507072613 | 7 | 236 | 3.2 | 3.2 | 0.00 | 0.00 | 0.00 | 56 | 1014.7 |
| 20260507072110 | 7 | 236 | 3.2 | 3.2 | 0.00 | 0.00 | 0.00 | 56 | 1014.9 |
| 20260507071607 | 7 | 235 | 3.2 | 3.2 | 0.00 | 0.00 | 0.00 | 56 | 1014.8 |
| 20260507071104 | 7 | 235 | 1.6 | 3.2 | 0.00 | 0.00 | 0.00 | 57 | 1014.8 |
| 20260507070601 | 7 | 232 | 3.2 | 3.2 | 0.00 | 0.00 | 0.00 | 58 | 1015.0 |
| 20260507070058 | 7 | 238 | 1.6 | 3.2 | 0.00 | 0.00 | 0.00 | 58 | 1015.0 |
| 20260507065554 | 6 | 235 | 3.2 | 3.2 | 0.00 | 0.00 | 0.00 | 59 | 1015.0 |
| 20260507065051 | 6 | 236 | 1.6 | 3.2 | 0.00 | 0.00 | 0.00 | 59 | 1015.2 |
| 20260507064549 | 6 | 237 | 0.0 | 1.6 | 0.00 | 0.00 | 0.00 | 59 | 1015.0 |
| 20260507064048 | 6 | 237 | 0.0 | 1.6 | 0.00 | 0.00 | 0.00 | 60 | 1015.1 |
| 20260507063544 | 6 | 237 | 0.0 | 0.0 | 0.00 | 0.00 | 0.00 | 60 | 1015.1 |
| 20260507063042 | 6 | 237 | 0.0 | 1.6 | 0.00 | 0.00 | 0.00 | 59 | 1015.1 |
| 20260507062538 | 6 | 236 | 0.0 | 1.6 | 0.00 | 0.00 | 0.00 | 58 | 1015.2 |
| 20260507062036 | 6 | 236 | 1.6 | 1.6 | 0.00 | 0.00 | 0.00 | 58 | 1015.3 |
| 20260507061533 | 7 | 237 | 1.6 | 1.6 | 0.00 | 0.00 | 0.00 | 58 | 1015.3 |
| 20260507061031 | 7 | 237 | 1.6 | 1.6 | 0.00 | 0.00 | 0.00 | 57 | 1015.3 |
| 20260507060529 | 7 | 236 | 0.0 | 0.0 | 0.00 | 0.00 | 0.00 | 57 | 1015.3 |
| 20260507060025 | 7 | 233 | 3.2 | 3.2 | 0.00 | 0.00 | 0.00 | 58 | 1015.4 |
| 20260507055520 | 7 | 238 | 0.0 | 1.6 | 0.00 | 0.00 | 0.00 | 58 | 1015.5 |
| 20260507055016 | 7 | 237 | 1.6 | 1.6 | 0.00 | 0.00 | 0.00 | 58 | 1015.4 |
| 20260507054513 | 7 | 239 | 1.6 | 1.6 | 0.00 | 0.00 | 0.00 | 59 | 1015.4 |
| 20260507054010 | 7 | 239 | 1.6 | 1.6 | 0.00 | 0.00 | 0.00 | 58 | 1015.5 |
| 20260507053508 | 7 | 239 | 0.0 | 1.6 | 0.00 | 0.00 | 0.00 | 57 | 1015.3 |
| 20260507053006 | 7 | 236 | 3.2 | 3.2 | 0.00 | 0.00 | 0.00 | 56 | 1015.7 |
| 20260507052503 | 7 | 239 | 0.0 | 1.6 | 0.00 | 0.00 | 0.00 | 56 | 1015.3 |
| 20260507052000 | 7 | 239 | 1.6 | 1.6 | 0.00 | 0.00 | 0.00 | 56 | 1015.5 |
| 20260507051458 | 7 | 239 | 1.6 | 1.6 | 0.00 | 0.00 | 0.00 | 55 | 1015.6 |
| 20260507050954 | 7 | 239 | 0.0 | 1.6 | 0.00 | 0.00 | 0.00 | 55 | 1015.4 |
| 20260507050450 | 7 | 238 | 1.6 | 1.6 | 0.00 | 0.00 | 0.00 | 54 | 1015.5 |
| 20260507045948 | 7 | 236 | 1.6 | 1.6 | 0.00 | 0.00 | 0.00 | 53 | 1015.7 |
| 20260507045444 | 7 | 259 | 1.6 | 3.2 | 0.00 | 0.00 | 0.00 | 53 | 1015.4 |
| 20260507044942 | 7 | 260 | 0.0 | 0.0 | 0.00 | 0.00 | 0.00 | 54 | 1015.6 |
| 20260507044438 | 7 | 260 | 0.0 | 0.0 | 0.00 | 0.00 | 0.00 | 54 | 1015.7 |
| 20260507043934 | 7 | 260 | 1.6 | 1.6 | 0.00 | 0.00 | 0.00 | 54 | 1015.6 |
| 20260507043431 | 7 | 260 | 0.0 | 0.0 | 0.00 | 0.00 | 0.00 | 54 | 1015.8 |
| 20260507042927 | 7 | 260 | 0.0 | 0.0 | 0.00 | 0.00 | 0.00 | 54 | 1015.7 |
| 20260507042424 | 8 | 260 | 0.0 | 0.0 | 0.00 | 0.00 | 0.00 | 54 | 1015.8 |
| 20260507041919 | 8 | 260 | 1.6 | 1.6 | 0.00 | 0.00 | 0.00 | 54 | 1016.0 |
| 20260507041416 | 8 | 260 | 1.6 | 1.6 | 0.00 | 0.00 | 0.00 | 54 | 1015.6 |
| 20260507040914 | 8 | 260 | 0.0 | 0.0 | 0.00 | 0.00 | 0.00 | 54 | 1016.0 |
| 20260507040409 | 8 | 260 | 1.6 | 1.6 | 0.00 | 0.00 | 0.00 | 54 | 1016.1 |
| 20260507035905 | 8 | 260 | 0.0 | 0.0 | 0.00 | 0.00 | 0.00 | 53 | 1015.8 |
| 20260507035402 | 8 | 259 | 1.6 | 1.6 | 0.00 | 0.00 | 0.00 | 53 | 1016.0 |
| 20260507034859 | 8 | 260 | 1.6 | 1.6 | 0.00 | 0.00 | 0.00 | 53 | 1016.2 |
| 20260507034356 | 8 | 260 | 1.6 | 1.6 | 0.00 | 0.00 | 0.00 | 52 | 1016.0 |
| 20260507033854 | 8 | 260 | 1.6 | 1.6 | 0.00 | 0.00 | 0.00 | 53 | 1016.1 |
| 20260507033352 | 8 | 261 | 0.0 | 0.0 | 0.00 | 0.00 | 0.00 | 52 | 1016.1 |
| 20260507032848 | 8 | 260 | 0.0 | 0.0 | 0.00 | 0.00 | 0.00 | 51 | 1016.0 |
| 20260507032345 | 8 | 260 | 0.0 | 0.0 | 0.00 | 0.00 | 0.00 | 50 | 1016.0 |
| 20260507031841 | 8 | 171 | 0.0 | 1.6 | 0.00 | 0.00 | 0.00 | 49 | 1016.3 |
| 20260507031338 | 8 | 259 | 0.0 | 0.0 | 0.00 | 0.00 | 0.00 | 50 | 1016.2 |
| 20260507030834 | 8 | 257 | 0.0 | 0.0 | 0.00 | 0.00 | 0.00 | 49 | 1016.2 |
| 20260507030332 | 8 | 257 | 0.0 | 0.0 | 0.00 | 0.00 | 0.00 | 48 | 1016.2 |
| 20260507025829 | 8 | 257 | 0.0 | 0.0 | 0.00 | 0.00 | 0.00 | 48 | 1016.3 |
| 20260507025326 | 9 | 257 | 0.0 | 0.0 | 0.00 | 0.00 | 0.00 | 47 | 1016.4 |
| 20260507024824 | 9 | 253 | 0.0 | 0.0 | 0.00 | 0.00 | 0.00 | 46 | 1016.2 |
| 20260507024321 | 9 | 253 | 0.0 | 0.0 | 0.00 | 0.00 | 0.00 | 45 | 1016.3 |
| 20260507023817 | 10 | 253 | 0.0 | 0.0 | 0.00 | 0.00 | 0.00 | 44 | 1016.3 |
| 20260507023313 | 10 | 171 | 0.0 | 0.0 | 0.00 | 0.00 | 0.00 | 42 | 1016.1 |
| 20260507022811 | 10 | 259 | 1.6 | 1.6 | 0.00 | 0.00 | 0.00 | 40 | 1016.4 |
| 20260507022307 | 10 | 264 | 1.6 | 1.6 | 0.00 | 0.00 | 0.00 | 40 | 1016.3 |
| 20260507021803 | 10 | 265 | 1.6 | 1.6 | 0.00 | 0.00 | 0.00 | 40 | 1016.2 |
| 20260507021259 | 11 | 270 | 1.6 | 1.6 | 0.00 | 0.00 | 0.00 | 39 | 1016.0 |
| 20260507020757 | 11 | 273 | 1.6 | 1.6 | 0.00 | 0.00 | 0.00 | 39 | 1016.1 |
| 20260507020253 | 11 | 280 | 1.6 | 1.6 | 0.00 | 0.00 | 0.00 | 38 | 1016.0 |
| 20260507015751 | 11 | 283 | 1.6 | 1.6 | 0.00 | 0.00 | 0.00 | 38 | 1015.9 |
| 20260507015248 | 11 | 286 | 1.6 | 1.6 | 0.00 | 0.00 | 0.00 | 38 | 1016.2 |
| 20260507014745 | 11 | 278 | 1.6 | 1.6 | 0.00 | 0.00 | 0.00 | 38 | 1016.2 |
| 20260507014241 | 11 | 266 | 1.6 | 1.6 | 0.00 | 0.00 | 0.00 | 38 | 1015.8 |
| 20260507013738 | 11 | 264 | 3.2 | 3.2 | 0.00 | 0.00 | 0.00 | 37 | 1015.8 |
| 20260507013236 | 11 | 283 | 3.2 | 3.2 | 0.00 | 0.00 | 0.00 | 37 | 1016.1 |
| 20260507012733 | 11 | 277 | 1.6 | 3.2 | 0.00 | 0.00 | 0.00 | 37 | 1016.0 |
| 20260507012228 | 11 | 306 | 3.2 | 4.8 | 0.00 | 0.00 | 0.00 | 37 | 1015.9 |
| 20260507011726 | 11 | 300 | 3.2 | 3.2 | 0.00 | 0.00 | 0.00 | 37 | 1016.0 |
| 20260507011222 | 12 | 286 | 3.2 | 3.2 | 0.00 | 0.00 | 0.00 | 36 | 1015.9 |
| 20260507010722 | 12 | 285 | 3.2 | 3.2 | 0.00 | 0.00 | 0.00 | 36 | 1015.9 |
| 20260507010218 | 12 | 340 | 3.2 | 3.2 | 0.00 | 0.00 | 0.00 | 35 | 1015.8 |
| 20260507005716 | 12 | 296 | 1.6 | 3.2 | 0.00 | 0.00 | 0.00 | 35 | 1015.8 |
| 20260507005212 | 12 | 329 | 3.2 | 3.2 | 0.00 | 0.00 | 0.00 | 35 | 1016.1 |
| 20260507004708 | 12 | 340 | 3.2 | 4.8 | 0.00 | 0.00 | 0.00 | 34 | 1016.0 |
| 20260507004206 | 12 | 279 | 6.4 | 9.7 | 0.00 | 0.00 | 0.00 | 33 | 1016.1 |
| 20260507003702 | 13 | 298 | 1.6 | 3.2 | 0.00 | 0.00 | 0.00 | 34 | 1016.0 |
| 20260507003158 | 13 | 281 | 6.4 | 8.0 | 0.00 | 0.00 | 0.00 | 34 | 1016.1 |
| 20260507002654 | 13 | 288 | 1.6 | 3.2 | 0.00 | 0.00 | 0.00 | 34 | 1016.1 |
| 20260507002150 | 13 | 321 | 8.0 | 11.3 | 0.00 | 0.00 | 0.00 | 33 | 1016.3 |
| 20260507001647 | 13 | 309 | 6.4 | 8.0 | 0.00 | 0.00 | 0.00 | 34 | 1016.2 |
| 20260507001144 | 12 | 333 | 11.3 | 12.9 | 0.00 | 0.00 | 0.00 | 33 | 1016.3 |
| 20260507000640 | 13 | 276 | 6.4 | 9.7 | 0.00 | 0.00 | 0.00 | 34 | 1016.4 |
| 20260507000136 | 13 | 4 | 8.0 | 9.7 | 0.00 | 0.00 | 0.00 | 34 | 1016.3 |
| 20260506235633 | 13 | 356 | 8.0 | 9.7 | 0.00 | 0.00 | 0.00 | 34 | 1016.1 |
| 20260506235133 | 13 | 337 | 8.0 | 9.7 | 0.00 | 0.00 | 0.00 | 34 | 1016.2 |
| 20260506234631 | 13 | 290 | 11.3 | 14.5 | 0.00 | 0.00 | 0.00 | 33 | 1016.3 |
| 20260506234128 | 13 | 237 | 8.0 | 9.7 | 0.00 | 0.00 | 0.00 | 32 | 1016.4 |
| 20260506233625 | 13 | 314 | 4.8 | 8.0 | 0.00 | 0.00 | 0.00 | 33 | 1016.6 |
| 20260506233122 | 13 | 260 | 8.0 | 9.7 | 0.00 | 0.00 | 0.00 | 33 | 1016.4 |
| 20260506232618 | 12 | 281 | 3.2 | 3.2 | 0.00 | 0.00 | 0.00 | 34 | 1016.3 |
| 20260506232114 | 13 | 290 | 12.9 | 16.1 | 0.00 | 0.00 | 0.00 | 33 | 1016.5 |
| 20260506231611 | 13 | 287 | 11.3 | 12.9 | 0.00 | 0.00 | 0.00 | 33 | 1016.6 |
| 20260506231109 | 13 | 302 | 9.7 | 16.1 | 0.00 | 0.00 | 0.00 | 33 | 1016.7 |
| 20260506230606 | 13 | 287 | 9.7 | 12.9 | 0.00 | 0.00 | 0.00 | 33 | 1016.6 |
| 20260506230103 | 13 | 308 | 4.8 | 9.7 | 0.00 | 0.00 | 0.00 | 33 | 1016.5 |
| 20260506225559 | 13 | 291 | 6.4 | 9.7 | 0.00 | 0.00 | 0.00 | 34 | 1016.8 |
| 20260506225055 | 13 | 282 | 3.2 | 9.7 | 0.00 | 0.00 | 0.00 | 34 | 1016.7 |
| 20260506224553 | 12 | 285 | 8.0 | 9.7 | 0.00 | 0.00 | 0.00 | 33 | 1016.5 |
| 20260506224049 | 12 | 311 | 6.4 | 9.7 | 0.00 | 0.00 | 0.00 | 34 | 1016.7 |
| 20260506223545 | 12 | 266 | 9.7 | 12.9 | 0.00 | 0.00 | 0.00 | 34 | 1016.7 |
| 20260506223042 | 13 | 268 | 8.0 | 11.3 | 0.00 | 0.00 | 0.00 | 34 | 1016.5 |
| 20260506222539 | 13 | 344 | 9.7 | 12.9 | 0.00 | 0.00 | 0.00 | 33 | 1016.8 |
| 20260506222035 | 13 | 278 | 8.0 | 9.7 | 0.00 | 0.00 | 0.00 | 33 | 1016.9 |
| 20260506221532 | 13 | 287 | 6.4 | 11.3 | 0.00 | 0.00 | 0.00 | 33 | 1016.6 |
| 20260506221030 | 13 | 287 | 16.1 | 17.7 | 0.00 | 0.00 | 0.00 | 34 | 1016.7 |
| 20260506220526 | 13 | 286 | 8.0 | 11.3 | 0.00 | 0.00 | 0.00 | 34 | 1016.9 |
| 20260506220022 | 13 | 18 | 8.0 | 11.3 | 0.00 | 0.00 | 0.00 | 34 | 1016.8 |
| 20260506215519 | 13 | 321 | 8.0 | 11.3 | 0.00 | 0.00 | 0.00 | 35 | 1016.9 |
| 20260506215015 | 13 | 285 | 8.0 | 16.1 | 0.00 | 0.00 | 0.00 | 34 | 1016.8 |
| 20260506214512 | 13 | 286 | 4.8 | 8.0 | 0.00 | 0.00 | 0.00 | 35 | 1016.6 |
| 20260506214009 | 13 | 12 | 11.3 | 12.9 | 0.00 | 0.00 | 0.00 | 34 | 1016.7 |
| 20260506213507 | 12 | 335 | 8.0 | 11.3 | 0.00 | 0.00 | 0.00 | 34 | 1016.9 |
| 20260506213004 | 13 | 298 | 11.3 | 22.5 | 0.00 | 0.00 | 0.00 | 34 | 1016.8 |
| 20260506212500 | 12 | 347 | 11.3 | 16.1 | 0.00 | 0.00 | 0.00 | 35 | 1016.7 |
| 20260506211955 | 12 | 298 | 6.4 | 8.0 | 0.00 | 0.00 | 0.00 | 35 | 1017.0 |
| 20260506211451 | 13 | 239 | 6.4 | 8.0 | 0.00 | 0.00 | 0.00 | 35 | 1016.8 |
| 20260506210948 | 13 | 335 | 9.7 | 12.9 | 0.00 | 0.00 | 0.00 | 35 | 1016.8 |
| 20260506210444 | 12 | 291 | 6.4 | 9.7 | 0.00 | 0.00 | 0.00 | 34 | 1016.8 |
| 20260506205942 | 13 | 327 | 9.7 | 11.3 | 0.00 | 0.00 | 0.00 | 35 | 1017.0 |
| 20260506205438 | 13 | 268 | 14.5 | 16.1 | 0.00 | 0.00 | 0.00 | 35 | 1017.2 |
| 20260506204934 | 13 | 282 | 8.0 | 11.3 | 0.00 | 0.00 | 0.00 | 34 | 1017.0 |
| 20260506204432 | 13 | 300 | 8.0 | 9.7 | 0.00 | 0.00 | 0.00 | 34 | 1017.4 |
| 20260506203930 | 12 | 280 | 8.0 | 9.7 | 0.00 | 0.00 | 0.00 | 35 | 1017.1 |
| 20260506203427 | 12 | 308 | 11.3 | 12.9 | 0.00 | 0.00 | 0.00 | 35 | 1017.4 |
| 20260506202923 | 13 | 340 | 16.1 | 22.5 | 0.00 | 0.00 | 0.00 | 34 | 1017.2 |
| 20260506202421 | 12 | 265 | 11.3 | 14.5 | 0.00 | 0.00 | 0.00 | 35 | 1017.3 |
| 20260506201917 | 13 | 301 | 9.7 | 12.9 | 0.00 | 0.00 | 0.00 | 35 | 1017.4 |
| 20260506201415 | 13 | 306 | 20.9 | 29.0 | 0.00 | 0.00 | 0.00 | 34 | 1017.3 |
| 20260506200911 | 13 | 232 | 20.9 | 32.2 | 0.00 | 0.00 | 0.00 | 35 | 1017.2 |
| 20260506200407 | 12 | 295 | 4.8 | 8.0 | 0.00 | 0.00 | 0.00 | 35 | 1017.5 |
| 20260506195904 | 13 | 264 | 11.3 | 14.5 | 0.00 | 0.00 | 0.00 | 35 | 1017.6 |
| 20260506195401 | 12 | 295 | 3.2 | 4.8 | 0.00 | 0.00 | 0.00 | 36 | 1017.5 |
| 20260506194858 | 12 | 333 | 11.3 | 14.5 | 0.00 | 0.00 | 0.00 | 35 | 1017.6 |
| 20260506194354 | 12 | 282 | 14.5 | 17.7 | 0.00 | 0.00 | 0.00 | 36 | 1017.8 |
| 20260506193852 | 12 | 53 | 6.4 | 8.0 | 0.00 | 0.00 | 0.00 | 36 | 1017.5 |
| 20260506193349 | 12 | 256 | 12.9 | 14.5 | 0.00 | 0.00 | 0.00 | 36 | 1017.6 |
| 20260506192845 | 12 | 276 | 14.5 | 20.9 | 0.00 | 0.00 | 0.00 | 36 | 1017.6 |
| 20260506192342 | 12 | 275 | 22.5 | 32.2 | 0.00 | 0.00 | 0.00 | 37 | 1017.9 |
| 20260506191839 | 12 | 275 | 12.9 | 14.5 | 0.00 | 0.00 | 0.00 | 37 | 1017.8 |
| 20260506191335 | 12 | 340 | 9.7 | 12.9 | 0.00 | 0.00 | 0.00 | 36 | 1017.5 |
| 20260506190832 | 12 | 272 | 14.5 | 16.1 | 0.00 | 0.00 | 0.00 | 36 | 1017.9 |
| 20260506190328 | 11 | 283 | 11.3 | 14.5 | 0.00 | 0.00 | 0.00 | 37 | 1017.4 |
| 20260506185825 | 11 | 354 | 14.5 | 20.9 | 0.00 | 0.00 | 0.00 | 37 | 1017.5 |
| 20260506185322 | 11 | 291 | 6.4 | 11.3 | 0.00 | 0.00 | 0.00 | 37 | 1017.9 |
| 20260506184819 | 11 | 312 | 8.0 | 12.9 | 0.00 | 0.00 | 0.00 | 38 | 1017.9 |
| 20260506184317 | 12 | 299 | 12.9 | 17.7 | 0.00 | 0.00 | 0.00 | 36 | 1017.6 |
| 20260506183814 | 11 | 278 | 4.8 | 4.8 | 0.00 | 0.00 | 0.00 | 39 | 1017.8 |
| 20260506183309 | 11 | 308 | 14.5 | 17.7 | 0.00 | 0.00 | 0.00 | 38 | 1018.1 |
| 20260506182806 | 11 | 287 | 11.3 | 12.9 | 0.00 | 0.00 | 0.00 | 39 | 1018.0 |
| 20260506182306 | 11 | 284 | 12.9 | 16.1 | 0.00 | 0.00 | 0.00 | 38 | 1018.1 |
| 20260506181801 | 11 | 247 | 9.7 | 12.9 | 0.00 | 0.00 | 0.00 | 38 | 1018.2 |
| 20260506181259 | 11 | 234 | 16.1 | 17.7 | 0.00 | 0.00 | 0.00 | 39 | 1018.2 |
| 20260506180756 | 11 | 326 | 4.8 | 8.0 | 0.00 | 0.00 | 0.00 | 40 | 1018.2 |
| 20260506180251 | 11 | 29 | 8.0 | 9.7 | 0.00 | 0.00 | 0.00 | 41 | 1018.4 |
| 20260506175748 | 11 | 319 | 4.8 | 9.7 | 0.00 | 0.00 | 0.00 | 40 | 1018.4 |
| 20260506175245 | 10 | 276 | 12.9 | 17.7 | 0.00 | 0.00 | 0.00 | 41 | 1018.5 |
| 20260506174742 | 11 | 296 | 6.4 | 9.7 | 0.00 | 0.00 | 0.00 | 41 | 1018.4 |
| 20260506174239 | 10 | 337 | 11.3 | 17.7 | 0.00 | 0.00 | 0.00 | 41 | 1018.4 |
| 20260506173737 | 10 | 280 | 6.4 | 9.7 | 0.00 | 0.00 | 0.00 | 42 | 1018.4 |
| 20260506173228 | 10 | 296 | 8.0 | 12.9 | 0.00 | 0.00 | 0.00 | 42 | 1018.6 |
| 20260506172725 | 10 | 261 | 4.8 | 9.7 | 0.00 | 0.00 | 0.00 | 42 | 1018.7 |
| 20260506172221 | 10 | 272 | 8.0 | 16.1 | 0.00 | 0.00 | 0.00 | 42 | 1018.7 |
| 20260506171719 | 10 | 322 | 8.0 | 11.3 | 0.00 | 0.00 | 0.00 | 41 | 1018.7 |
| 20260506171216 | 10 | 284 | 11.3 | 14.5 | 0.00 | 0.00 | 0.00 | 42 | 1018.6 |
| 20260506170714 | 10 | 0 | 1.6 | 4.8 | 0.00 | 0.00 | 0.00 | 42 | 1018.7 |
| 20260506170210 | 10 | 346 | 6.4 | 9.7 | 0.00 | 0.00 | 0.00 | 42 | 1018.8 |
| 20260506165709 | 10 | 280 | 14.5 | 20.9 | 0.00 | 0.00 | 0.00 | 42 | 1018.8 |
| 20260506165205 | 10 | 348 | 11.3 | 12.9 | 0.00 | 0.00 | 0.00 | 42 | 1018.7 |
| 20260506164702 | 10 | 2 | 4.8 | 4.8 | 0.00 | 0.00 | 0.00 | 42 | 1018.6 |
| 20260506164159 | 10 | 274 | 8.0 | 9.7 | 0.00 | 0.00 | 0.00 | 42 | 1018.7 |
| 20260506163655 | 10 | 352 | 6.4 | 11.3 | 0.00 | 0.00 | 0.00 | 42 | 1018.9 |
| 20260506163151 | 10 | 303 | 11.3 | 16.1 | 0.00 | 0.00 | 0.00 | 41 | 1018.7 |
| 20260506162647 | 10 | 268 | 14.5 | 16.1 | 0.00 | 0.00 | 0.00 | 41 | 1018.7 |
| 20260506162145 | 10 | 255 | 11.3 | 11.3 | 0.00 | 0.00 | 0.00 | 42 | 1018.5 |
| 20260506161642 | 10 | 355 | 11.3 | 12.9 | 0.00 | 0.00 | 0.00 | 44 | 1018.6 |
| 20260506161139 | 9 | 303 | 11.3 | 12.9 | 0.00 | 0.00 | 0.00 | 43 | 1018.3 |
| 20260506160636 | 10 | 30 | 3.2 | 4.8 | 0.00 | 0.00 | 0.00 | 43 | 1018.5 |
| 20260506160133 | 9 | 318 | 12.9 | 14.5 | 0.00 | 0.00 | 0.00 | 45 | 1018.6 |
| 20260506155632 | 10 | 295 | 1.6 | 3.2 | 0.00 | 0.00 | 0.00 | 45 | 1018.6 |
| 20260506155128 | 10 | 288 | 4.8 | 4.8 | 0.00 | 0.00 | 0.00 | 45 | 1018.6 |
| 20260506153225 | 9 | 292 | 4.8 | 8.0 | 0.00 | 0.00 | 0.00 | 45 | 1018.5 |
| 20260506152721 | 9 | 286 | 8.0 | 12.9 | 0.00 | 0.00 | 0.00 | 46 | 1018.5 |
| 20260506152219 | 9 | 265 | 6.4 | 8.0 | 0.00 | 0.00 | 0.00 | 47 | 1018.4 |
| 20260506151718 | 10 | 324 | 4.8 | 8.0 | 0.00 | 0.00 | 0.00 | 46 | 1018.3 |
| 20260506151214 | 10 | 21 | 6.4 | 9.7 | 0.00 | 0.00 | 0.00 | 46 | 1018.1 |
| 20260506150710 | 9 | 270 | 3.2 | 3.2 | 0.00 | 0.00 | 0.00 | 46 | 1018.5 |
| 20260506150207 | 9 | 266 | 3.2 | 3.2 | 0.00 | 0.00 | 0.00 | 47 | 1018.4 |
| 20260506145704 | 9 | 357 | 8.0 | 9.7 | 0.00 | 0.00 | 0.00 | 48 | 1018.4 |
| 20260506145201 | 8 | 275 | 1.6 | 1.6 | 0.00 | 0.00 | 0.00 | 48 | 1018.2 |
| 20260506144659 | 8 | 277 | 8.0 | 9.7 | 0.00 | 0.00 | 0.00 | 48 | 1018.2 |
| 20260506144155 | 8 | 286 | 8.0 | 9.7 | 0.00 | 0.00 | 0.00 | 48 | 1018.4 |
| 20260506143653 | 8 | 2 | 6.4 | 8.0 | 0.00 | 0.00 | 0.00 | 48 | 1018.5 |
| 20260506143151 | 8 | 339 | 1.6 | 3.2 | 0.00 | 0.00 | 0.00 | 48 | 1018.1 |
| 20260506142649 | 8 | 251 | 1.6 | 3.2 | 0.00 | 0.00 | 0.00 | 48 | 1018.5 |
| 20260506142146 | 8 | 7 | 4.8 | 4.8 | 0.00 | 0.00 | 0.00 | 48 | 1018.3 |
| 20260506141644 | 8 | 359 | 4.8 | 4.8 | 0.00 | 0.00 | 0.00 | 49 | 1018.3 |
| 20260506141142 | 7 | 327 | 3.2 | 4.8 | 0.00 | 0.00 | 0.00 | 49 | 1018.2 |
| 20260506140639 | 7 | 322 | 3.2 | 3.2 | 0.00 | 0.00 | 0.00 | 50 | 1018.2 |
| 20260506140137 | 7 | 296 | 1.6 | 3.2 | 0.00 | 0.00 | 0.00 | 50 | 1018.2 |
| 20260506135633 | 7 | 339 | 4.8 | 4.8 | 0.00 | 0.00 | 0.00 | 50 | 1018.1 |
| 20260506135130 | 7 | 40 | 8.0 | 9.7 | 0.00 | 0.00 | 0.00 | 51 | 1018.0 |
| 20260506134626 | 7 | 31 | 4.8 | 4.8 | 0.00 | 0.00 | 0.00 | 52 | 1017.9 |
| 20260506134122 | 7 | 22 | 8.0 | 11.3 | 0.00 | 0.00 | 0.00 | 52 | 1018.1 |
| 20260506133620 | 7 | 44 | 3.2 | 4.8 | 0.00 | 0.00 | 0.00 | 53 | 1017.8 |
| 20260506133116 | 7 | 4 | 8.0 | 9.7 | 0.00 | 0.00 | 0.00 | 53 | 1018.0 |
| 20260506132614 | 6 | 15 | 4.8 | 4.8 | 0.00 | 0.00 | 0.00 | 55 | 1017.5 |
| 20260506132110 | 6 | 353 | 4.8 | 4.8 | 0.00 | 0.00 | 0.00 | 56 | 1017.6 |
| 20260506131608 | 6 | 8 | 8.0 | 9.7 | 0.00 | 0.00 | 0.00 | 57 | 1017.6 |
| 20260506131104 | 6 | 359 | 4.8 | 8.0 | 0.00 | 0.00 | 0.00 | 58 | 1017.8 |
| 20260506130601 | 6 | 327 | 3.2 | 3.2 | 0.00 | 0.00 | 0.00 | 58 | 1017.6 |
| 20260506130059 | 6 | 340 | 6.4 | 8.0 | 0.00 | 0.00 | 0.00 | 58 | 1017.4 |
| 20260506125557 | 6 | 33 | 4.8 | 8.0 | 0.00 | 0.00 | 0.00 | 59 | 1017.6 |
| 20260506125054 | 5 | 342 | 4.8 | 4.8 | 0.00 | 0.00 | 0.00 | 60 | 1017.4 |
| 20260506124552 | 5 | 337 | 4.8 | 4.8 | 0.00 | 0.00 | 0.00 | 60 | 1017.6 |
| 20260506124049 | 5 | 346 | 11.3 | 12.9 | 0.00 | 0.00 | 0.00 | 60 | 1017.3 |
| 20260506123547 | 5 | 344 | 3.2 | 3.2 | 0.00 | 0.00 | 0.00 | 61 | 1017.6 |
| 20260506123045 | 5 | 352 | 0.0 | 1.6 | 0.00 | 0.00 | 0.00 | 62 | 1017.2 |
| 20260506122541 | 5 | 7 | 3.2 | 3.2 | 0.00 | 0.00 | 0.00 | 62 | 1017.3 |
| 20260506122040 | 5 | 344 | 4.8 | 4.8 | 0.00 | 0.00 | 0.00 | 62 | 1016.9 |
| 20260506121537 | 5 | 340 | 1.6 | 3.2 | 0.00 | 0.00 | 0.00 | 63 | 1017.1 |
| 20260506121033 | 5 | 344 | 6.4 | 8.0 | 0.00 | 0.00 | 0.00 | 63 | 1017.0 |
| 20260506120531 | 5 | 338 | 3.2 | 3.2 | 0.00 | 0.00 | 0.00 | 63 | 1016.9 |
| 20260506120028 | 5 | 339 | 4.8 | 4.8 | 0.00 | 0.00 | 0.00 | 63 | 1017.0 |
| 20260506115526 | 5 | 340 | 4.8 | 4.8 | 0.00 | 0.00 | 0.00 | 63 | 1016.9 |